{"data":{"norad_id":68985,"epoch":"2026-09-19T10:54:27.910080Z","epoch_age_seconds":109599,"freshness":"FRESH","line1":"1 68985U 26100F   26262.45448970  .00002413  00000+0  24549-3 0  9990","line2":"2 68985  97.7220 158.0874 0003328 129.3578 230.7936 14.91674735 20750","mean_motion":14.91674735,"eccentricity":0.0003328,"inclination_deg":97.722,"raan_deg":158.0874,"arg_perigee_deg":129.3578,"mean_anomaly_deg":230.7936,"bstar":0.00024549,"rev_number":2075,"period_min":96.535790693003,"perigee_km":590.39333186172,"apogee_km":595.03312977535,"semimajor_km":6970.8502308185,"source":"CELESTRAK","updated_at":"2026-09-20T09:00:24.599107Z"}}